This demonstration page uses our WeatherBlox Daily Observations layout. Learn more.

Left ArrowRight Arrow

39.01783, -85.05884

Hourly Observations for February 21, 2016

Temp ( °F °C ) Dew Point ( °F °C ) Humidity (%) Winds ( mph kmh ) Pressure ( in mb ) Visibility ( mi km ) Precip ( " mm )
12:52 am 00:52 Mostly Cloudy 59 15 53 11.7 81 81 SSW 9 15 29.94 1014 10 16 N/A
1:23 am 01:23 Cloudy with Thunderstorms 59 15 54 12 82 82 SSW 8 13 29.94 1014 5 8 N/A
1:26 am 01:26 Cloudy with Strong Thunderstorms 57 14 54 12 88 88 VRB 6 9 29.94 1014 2 3 N/A
1:33 am 01:33 Cloudy with Thunderstorms 57 14 55 13 94 94 SSW 6 9 29.94 1014 2 3 0.17 4.32
1:36 am 01:36 Cloudy with Thunderstorms 57 14 55 13 94 94 SSW 7 11 29.94 1014 3 5 0.18 4.57
1:41 am 01:41 Cloudy with Strong Thunderstorms 57 14 55 13 94 94 VRB 5 7 29.94 1014 2 3 0.21 5.33
1:50 am 01:50 Cloudy with Thunderstorms 57 14 55 13 94 94 VRB 3 6 29.94 1014 3 5 N/A
1:52 am 01:52 Cloudy with Thunderstorms 57 13.9 55 12.8 93 93 N N/A 29.92 1013 6 10 0.28 7.11
2:07 am 02:07 Cloudy with Light Rain 57 14 55 13 94 94 NW 12 19 29.94 1014 6 10 N/A
2:26 am 02:26 Cloudy with Light Rain 57 14 55 13 94 94 N N/A 29.94 1014 5 8 0.06 1.52
2:31 am 02:31 Cloudy with Rain 57 14 55 13 94 94 SW 3 6 29.94 1014 3 4 0.06 1.52
2:39 am 02:39 Cloudy with Heavy Rain 57 14 55 13 94 94 NNW 5 7 29.94 1014 1 2 0.15 3.81
2:52 am 02:52 Cloudy with Heavy Rain 56 13.3 55 12.8 97 97 NW 8 13 29.91 1013 1 2 0.27 6.86
3:30 am 03:30 Cloudy with Heavy Rain 55 13 54 12 94 94 W 9 15 29.94 1014 2 3 0.44 11.18
3:52 am 03:52 Cloudy with Heavy Rain 56 13.3 54 12.2 93 93 W 10 17 29.91 1013 3 4 0.57 14.48
4:05 am 04:05 Cloudy with Heavy Rain 55 13 54 12 94 94 WNW 7 11 29.94 1014 3 5 0.07 1.78
4:29 am 04:29 Cloudy with Heavy Rain 54 12 54 12 100 100 NW 5 7 29.91 1013 2 3 0.20 5.08
4:44 am 04:44 Cloudy with Heavy Rain 54 12 54 12 100 100 NW 3 6 29.94 1014 3 4 0.29 7.37
4:52 am 04:52 Cloudy with Heavy Rain 54 12.2 53 11.7 97 97 W 5 7 29.91 1013 3 4 0.33 8.38
5:24 am 05:24 Cloudy with Light Rain 54 12 54 12 100 100 SSE 9 15 29.88 1012 5 8 0.09 2.29
5:52 am 05:52 Cloudy with Light Rain 54 12.2 53 11.7 97 97 WNW 5 7 29.88 1012 5 8 0.09 2.29
6:12 am 06:12 Cloudy with Light Rain 54 12 54 12 100 100 WNW 5 7 29.91 1013 3 5 N/A
6:28 am 06:28 Cloudy with Light Rain 54 12 54 12 100 100 NNW 12 19 29.91 1013 1 2 N/A
6:30 am 06:30 Cloudy with Mist and Fog 54 12 54 12 100 100 NNW 10 17 29.91 1013 0 0 N/A
6:36 am 06:36 Cloudy with Fog 54 12 54 12 100 100 NNW 10 17 29.91 1013 1 2 N/A
6:52 am 06:52 Cloudy with Mist and Fog 52 11.1 52 11.1 100 100 N 7 11 29.89 1012 1 2 0.01 0.25
7:31 am 07:31 Cloudy with Mist and Fog 48 9 48 9 100 100 N 13 20 29.91 1013 2 3 N/A
7:35 am 07:35 Cloudy with Mist and Fog 48 9 46 8 94 94 N 12 19 29.91 1013 4 6 N/A
7:52 am 07:52 Cloudy with Mist and Fog 48 8.9 46 7.8 93 93 N 9 15 29.93 1013 5 8 N/A
9:33 am 09:33 Cloudy 46 8 45 7 93 93 N 9 15 29.97 1015 10 16 N/A
9:52 am 09:52 Cloudy 47 8.3 43 6.1 86 86 N 8 13 29.95 1014 10 16 N/A
10:52 am 10:52 Cloudy 48 8.9 41 5 77 77 NNE 10 17 29.95 1014 10 16 N/A
11:52 am 11:52 Cloudy 49 9.4 42 5.6 77 77 NNE 8 13 29.95 1014 10 16 N/A
12:52 pm 12:52 Mostly Cloudy 53 11.7 42 5.6 66 66 NE 5 7 29.93 1013 10 16 N/A
1:52 pm 13:52 Mostly Cloudy 56 13.3 41 5 57 57 NNE 3 6 29.92 1013 10 16 N/A
2:52 pm 14:52 Partly Cloudy 58 14.4 42 5.6 56 56 NW 6 9 29.92 1013 10 16 N/A
3:52 pm 15:52 Partly Cloudy 59 15 41 5 51 51 N 13 20 29.92 1013 10 16 N/A
4:52 pm 16:52 Partly Cloudy 58 14.4 40 4.4 51 51 NNW 10 17 29.93 1014 10 16 N/A
5:52 pm 17:52 Mostly Sunny 54 12.2 39 3.9 57 57 N 10 17 29.96 1015 10 16 N/A
6:52 pm 18:52 Mostly Clear 50 10 37 2.8 61 61 N 12 19 29.99 1016 10 16 N/A
7:52 pm 19:52 Mostly Clear 48 8.9 37 2.8 66 66 N 10 17 30.01 1016 10 16 N/A
8:52 pm 20:52 Mostly Clear 46 7.8 36 2.2 68 68 N 12 19 30.04 1017 10 16 N/A
9:52 pm 21:52 Partly Cloudy 45 7.2 35 1.7 68 68 NNE 12 19 30.06 1018 10 16 N/A
10:52 pm 22:52 Partly Cloudy 43 6.1 34 1.1 71 71 NNE 10 17 30.07 1018 10 16 N/A
11:52 pm 23:52 Clear 41 5 34 1.1 76 76 NNE 13 20 30.08 1019 10 16 N/A

Powered by AerisWeather